Location: Newark
(41.6500°N, 71.4833°W)
Time: 07:43:53
(UTC+00:00)

Vanguard 1 Rocket - All Passes

Search period start: 28 January 2020 00:00
Search period end: 07 February 2020 00:00
Orbit: 650 x 4226 km, 34.3° (Epoch: 27 January)

Date Brightness Start Highest point End Pass type
(mag) Time Alt. Az. Time Alt. Az. Time Alt. Az.
28 Jan - 13:19:15 10° SW 13:25:10 37° SSE 13:35:28 10° E daylight
28 Jan - 15:42:07 10° WSW 15:50:47 61° S 16:08:00 10° ESE daylight
28 Jan - 18:06:42 10° W 18:18:51 52° SSW 18:40:27 10° SE daylight
28 Jan - 20:34:08 10° W 20:48:15 29° SW 21:07:31 10° SSE daylight
29 Jan - 12:10:16 10° SSW 12:14:39 22° SE 12:21:00 10° E daylight
29 Jan - 14:31:54 10° WSW 14:39:00 55° SSE 14:52:46 10° E daylight
29 Jan - 16:55:45 10° W 17:05:56 57° S 17:25:29 10° ESE daylight
29 Jan - 19:21:29 10° W 19:34:44 37° SSW 19:55:22 10° SSE daylight
29 Jan - 21:54:44 10° WSW 22:04:01 14° SW 22:14:38 10° SSW daylight
30 Jan - 13:22:01 10° SW 13:27:50 42° SSE 13:38:08 10° E daylight
30 Jan - 15:45:11 10° WSW 15:53:34 59° S 16:10:14 10° ESE daylight
30 Jan - 18:09:51 10° W 18:21:29 45° SSW 18:41:46 10° SE daylight
30 Jan - 20:38:18 10° W 20:50:37 23° SW 21:06:55 10° S daylight
31 Jan - 12:12:39 10° SSW 12:17:12 27° SSE 12:24:04 10° E daylight
31 Jan - 14:34:55 10° WSW 14:41:49 56° S 14:55:12 10° E daylight
31 Jan - 16:58:52 10° W 17:08:41 52° SSW 17:27:16 10° SE daylight
31 Jan - 19:25:03 10° W 19:37:16 31° SSW 19:55:43 10° SSE daylight
01 Feb - 11:04:28 10° S 11:06:54 13° SE 11:09:46 10° ESE visible
01 Feb - 13:24:55 10° SW 13:30:36 46° SSE 13:40:46 10° E daylight
01 Feb - 15:48:17 10° W 15:56:25 55° S 16:12:21 10° ESE daylight
01 Feb - 18:13:10 10° W 18:24:09 38° SSW 18:42:47 10° SE daylight
01 Feb - 20:43:29 10° WSW 20:53:05 16° SW 21:05:03 10° S daylight
02 Feb - 12:15:14 10° SW 12:19:52 32° SSE 12:27:00 10° E daylight
02 Feb - 14:37:59 10° WSW 14:44:41 55° S 14:57:36 10° ESE daylight
02 Feb - 17:02:04 10° W 17:11:28 45° SSW 17:28:49 10° SE daylight
02 Feb - 19:29:02 10° WSW 19:39:52 24° SSW 19:55:27 10° S daylight
03 Feb - 11:06:15 10° S 11:09:28 18° SE 11:13:30 10° ESE visible
03 Feb - 13:27:52 10° WSW 13:33:27 48° SSE 13:43:22 10° E daylight
03 Feb - 15:51:26 10° W 15:59:17 50° S 16:14:21 10° ESE daylight
03 Feb - 18:16:42 10° W 18:26:53 31° SSW 18:43:24 10° SSE daylight
03 Feb - 20:52:26 10° SW 20:55:42 11° SW 20:59:12 10° SSW daylight
04 Feb - 12:18:01 10° SW 12:22:38 36° SSE 12:29:50 10° E daylight
04 Feb - 14:41:05 10° WSW 14:47:36 52° S 14:59:55 10° ESE daylight
04 Feb - 17:05:23 10° W 17:14:17 38° SSW 17:30:06 10° SE daylight
04 Feb - 19:33:49 10° WSW 19:42:33 17° SW 19:54:11 10° S daylight
05 Feb - 11:08:33 10° SSW 11:12:10 22° SSE 11:16:48 10° ESE visible
05 Feb - 13:30:55 10° WSW 13:36:22 49° S 13:45:57 10° ESE daylight
05 Feb - 15:54:38 10° W 16:02:10 43° SSW 16:16:11 10° SE daylight
05 Feb - 18:20:35 10° WSW 18:29:40 24° SSW 18:43:29 10° SSE daylight
06 Feb - 10:00:23 10° SSE 10:01:46 11° SSE 10:03:12 10° SE visible
06 Feb - 12:20:55 10° SW 12:25:30 40° SSE 12:32:38 10° E daylight
06 Feb - 14:44:13 10° WSW 14:50:32 47° S 15:02:09 10° ESE daylight
06 Feb - 17:08:53 10° W 17:17:10 30° SSW 17:31:02 10° SSE daylight
06 Feb - 19:40:56 10° SW 19:45:20 11° SW 19:50:22 10° SSW daylight
